QPF
0.04 0.04 0.04 0.04 0.05 0.05 0.05 0.09 0.10 0.08 0.06 0.04 0.02 0.01 0.02 0.03 0.02 0.02 0.02 0.01 0.01 0.01 0.03 0.03 0.01 0.01 0.02 0.03 0.03 0.03 0.03 0.02 0.03 0.04 0.06 0.07 0.08 0.08
0.04 0.05 0.04 0.04 0.04 0.04 0.05 0.06 0.07 0.09 0.07 0.04 0.04 0.02 0.02 0.02 0.02 0.02 0.02 0.02 0.01 0.01 0.02 0.03 0.01 0.01 0.01 0.01 0.01 0.01 0.01 0.02 0.02 0.02 0.03 0.04 0.05 0.06
0.04 0.04 0.05 0.05 0.05 0.04 0.05 0.05 0.05 0.06 0.05 0.03 0.02 0.02 0.03 0.03 0.03 0.02 0.02 0.02 0.01 0.01 0.01 0.01 0.01 0.01 0.01 0.01 0.00 0.01 0.01 0.01 0.01 0.01 0.01 0.02 0.02 0.03
0.03 0.03 0.03 0.04 0.06 0.06 0.05 0.05 0.06 0.06 0.05 0.04 0.03 0.03 0.03 0.03 0.03 0.03 0.02 0.01 0.01 0.01 0.01 0.01 0.01 0.01 0.00 0.01 0.00 0.01 0.01 0.01 0.00 0.00 0.00 0.01 0.01 0.01
0.03 0.03 0.04 0.04 0.05 0.06 0.06 0.06 0.05 0.05 0.05 0.04 0.03 0.04 0.03 0.03 0.03 0.03 0.02 0.03 0.02 0.01 0.01 0.01 0.01 0.01 0.01 0.01 0.01 0.01 0.01 0.01 0.01 0.00 0.00 0.01 0.01 0.01
0.05 0.03 0.03 0.03 0.04 0.05 0.05 0.06 0.06 0.06 0.05 0.04 0.03 0.03 0.03 0.03 0.03 0.03 0.03 0.04 0.03 0.02 0.02 0.02 0.02 0.01 0.01 0.01 0.01 0.02 0.02 0.01 0.00 0.00 0.00 0.00 0.00 0.00
0.06 0.05 0.04 0.04 0.05 0.05 0.04 0.05 0.05 0.06 0.06 0.05 0.04 0.03 0.02 0.02 0.02 0.02 0.03 0.03 0.04 0.03 0.03 0.03 0.02 0.02 0.02 0.02 0.03 0.03 0.02 0.00 0.00 0.00 0.00 0.00 0.00 0.00
0.06 0.07 0.05 0.05 0.05 0.04 0.03 0.03 0.04 0.05 0.07 0.07 0.05 0.04 0.04 0.03 0.03 0.02 0.03 0.04 0.03 0.02 0.03 0.03 0.03 0.03 0.03 0.03 0.03 0.03 0.02 0.01 0.01 0.01 0.01 0.01 0.00 0.01
0.04 0.04 0.04 0.04 0.04 0.03 0.03 0.02 0.02 0.02 0.03 0.04 0.05 0.04 0.04 0.04 0.04 0.04 0.04 0.04 0.04 0.03 0.04 0.03 0.03 0.03 0.03 0.03 0.04 0.03 0.02 0.02 0.01 0.01 0.02 0.02 0.02 0.02
0.03 0.04 0.05 0.05 0.04 0.04 0.03 0.03 0.02 0.01 0.02 0.02 0.02 0.02 0.03 0.04 0.05 0.06 0.07 0.06 0.06 0.05 0.05 0.04 0.03 0.03 0.03 0.04 0.04 0.03 0.02 0.02 0.02 0.02 0.03 0.04 0.05 0.04
0.03 0.04 0.04 0.05 0.05 0.04 0.04 0.04 0.03 0.02 0.01 0.01 0.01 0.02 0.02 0.03 0.03 0.05 0.05 0.05 0.05 0.05 0.05 0.06 0.06 0.05 0.04 0.04 0.04 0.03 0.03 0.03 0.04 0.05 0.04 0.05 0.07 0.06
0.04 0.05 0.04 0.04 0.03 0.03 0.03 0.04 0.04 0.03 0.03 0.03 0.02 0.02 0.01 0.02 0.02 0.03 0.04 0.04 0.04 0.04 0.05 0.07 0.07 0.07 0.06 0.04 0.03 0.03 0.03 0.03 0.04 0.06 0.05 0.06 0.07 0.06
0.04 0.04 0.04 0.03 0.02 0.01 0.02 0.02 0.03 0.03 0.04 0.04 0.03 0.03 0.03 0.02 0.02 0.02 0.02 0.03 0.03 0.03 0.04 0.07 0.07 0.07 0.06 0.05 0.05 0.04 0.04 0.04 0.03 0.02 0.02 0.04 0.05 0.05
0.05 0.05 0.05 0.05 0.03 0.02 0.01 0.01 0.01 0.02 0.02 0.03 0.03 0.04 0.03 0.03 0.02 0.02 0.02 0.02 0.03 0.03 0.04 0.05 0.05 0.05 0.05 0.04 0.05 0.05 0.04 0.03 0.02 0.02 0.02 0.02 0.02 0.02
0.04 0.06 0.06 0.05 0.04 0.03 0.02 0.01 0.01 0.01 0.01 0.02 0.02 0.03 0.02 0.02 0.02 0.03 0.03 0.03 0.03 0.03 0.04 0.04 0.04 0.05 0.05 0.04 0.04 0.04 0.04 0.03 0.02 0.02 0.02 0.02 0.01 0.01
0.04 0.05 0.05 0.03 0.03 0.02 0.02 0.02 0.02 0.02 0.02 0.01 0.01 0.02 0.02 0.02 0.02 0.03 0.04 0.04 0.04 0.05 0.05 0.05 0.05 0.05 0.05 0.04 0.03 0.02 0.02 0.02 0.01 0.01 0.02 0.02 0.01 0.01
0.03 0.04 0.05 0.04 0.03 0.02 0.02 0.02 0.02 0.02 0.02 0.02 0.02 0.02 0.01 0.02 0.02 0.03 0.03 0.04 0.03 0.04 0.04 0.04 0.04 0.04 0.04 0.04 0.03 0.03 0.02 0.01 0.01 0.01 0.02 0.02 0.02 0.01
0.02 0.04 0.05 0.05 0.04 0.02 0.01 0.02 0.02 0.02 0.01 0.02 0.02 0.02 0.02 0.02 0.02 0.03 0.03 0.03 0.03 0.03 0.03 0.03 0.03 0.03 0.03 0.03 0.03 0.02 0.02 0.02 0.02 0.02 0.02 0.02 0.02 0.02
0.03 0.05 0.07 0.06 0.07 0.05 0.02 0.01 0.01 0.01 0.01 0.02 0.02 0.02 0.02 0.02 0.02 0.02 0.03 0.03 0.03 0.02 0.02 0.03 0.03 0.03 0.03 0.03 0.02 0.02 0.02 0.02 0.02 0.02 0.02 0.02 0.02 0.02
0.04 0.05 0.07 0.08 0.07 0.08 0.06 0.03 0.02 0.02 0.02 0.02 0.03 0.03 0.03 0.03 0.03 0.03 0.03 0.03 0.03 0.02 0.02 0.02 0.02 0.02 0.02 0.02 0.02 0.01 0.01 0.02 0.02 0.03 0.03 0.03 0.02 0.01
0.03 0.04 0.05 0.08 0.10 0.11 0.10 0.07 0.03 0.02 0.03 0.03 0.03 0.03 0.02 0.02 0.02 0.03 0.03 0.03 0.03 0.03 0.03 0.03 0.02 0.03 0.03 0.03 0.02 0.01 0.02 0.02 0.02 0.02 0.02 0.03 0.03 0.02
0.04 0.04 0.04 0.05 0.07 0.10 0.14 0.12 0.07 0.03 0.03 0.03 0.04 0.04 0.03 0.03 0.02 0.03 0.04 0.04 0.05 0.05 0.05 0.05 0.05 0.04 0.04 0.04 0.03 0.02 0.02 0.02 0.02 0.01 0.02 0.02 0.03 0.03
0.05 0.05 0.05 0.05 0.06 0.06 0.09 0.10 0.09 0.06 0.04 0.04 0.04 0.04 0.04 0.03 0.03 0.03 0.03 0.03 0.04 0.05 0.06 0.06 0.06 0.06 0.06 0.05 0.04 0.03 0.03 0.02 0.02 0.02 0.02 0.02 0.02 0.02
MSLP
1017.04 1017.09 1017.14 1017.18 1017.19 1017.16 1017.08 1016.96 1016.81 1016.65 1016.50 1016.38 1016.30 1016.26 1016.26 1016.26 1016.26 1016.22 1016.13 1015.97 1015.74 1015.43 1015.07 1014.67 1014.25 1013.83 1013.42 1013.02 1012.65 1012.31 1012.01 1011.75 1011.53 1011.38 1011.31 1011.31 1011.41 1011.59
1017.38 1017.43 1017.49 1017.53 1017.54 1017.50 1017.42 1017.30 1017.14 1016.98 1016.82 1016.68 1016.59 1016.52 1016.49 1016.47 1016.43 1016.37 1016.25 1016.08 1015.86 1015.58 1015.27 1014.94 1014.60 1014.26 1013.93 1013.61 1013.28 1012.96 1012.63 1012.31 1012.00 1011.72 1011.51 1011.36 1011.31 1011.36
1017.63 1017.71 1017.79 1017.84 1017.86 1017.83 1017.76 1017.64 1017.49 1017.33 1017.17 1017.03 1016.91 1016.82 1016.75 1016.67 1016.58 1016.46 1016.30 1016.09 1015.84 1015.58 1015.30 1015.03 1014.77 1014.54 1014.31 1014.09 1013.84 1013.57 1013.26 1012.91 1012.54 1012.17 1011.82 1011.54 1011.34 1011.24
1017.78 1017.89 1017.99 1018.07 1018.11 1018.11 1018.06 1017.97 1017.84 1017.70 1017.55 1017.40 1017.27 1017.15 1017.03 1016.89 1016.73 1016.53 1016.30 1016.03 1015.75 1015.47 1015.21 1014.99 1014.81 1014.67 1014.55 1014.44 1014.30 1014.10 1013.84 1013.50 1013.10 1012.66 1012.21 1011.80 1011.45 1011.20
1017.79 1017.94 1018.08 1018.20 1018.28 1018.31 1018.30 1018.25 1018.16 1018.05 1017.92 1017.78 1017.64 1017.49 1017.33 1017.13 1016.90 1016.63 1016.32 1015.98 1015.65 1015.34 1015.08 1014.88 1014.76 1014.70 1014.67 1014.66 1014.61 1014.50 1014.29 1013.99 1013.58 1013.11 1012.59 1012.07 1011.61 1011.23
1017.68 1017.87 1018.05 1018.21 1018.34 1018.43 1018.47 1018.47 1018.43 1018.35 1018.26 1018.14 1018.00 1017.83 1017.63 1017.39 1017.10 1016.76 1016.38 1015.98 1015.60 1015.25 1014.97 1014.78 1014.68 1014.66 1014.69 1014.74 1014.77 1014.72 1014.57 1014.30 1013.92 1013.43 1012.87 1012.30 1011.75 1011.27
1017.45 1017.67 1017.90 1018.11 1018.30 1018.45 1018.55 1018.61 1018.62 1018.59 1018.53 1018.43 1018.31 1018.14 1017.93 1017.66 1017.33 1016.94 1016.52 1016.07 1015.64 1015.25 1014.94 1014.72 1014.61 1014.59 1014.63 1014.70 1014.76 1014.75 1014.63 1014.39 1014.03 1013.55 1013.00 1012.40 1011.81 1011.27
1017.12 1017.39 1017.67 1017.93 1018.18 1018.39 1018.55 1018.66 1018.72 1018.74 1018.71 1018.65 1018.54 1018.39 1018.18 1017.91 1017.57 1017.18 1016.73 1016.26 1015.80 1015.38 1015.02 1014.76 1014.60 1014.53 1014.53 1014.57 1014.60 1014.57 1014.46 1014.24 1013.90 1013.45 1012.92 1012.34 1011.76 1011.21
1016.74 1017.05 1017.38 1017.70 1018.00 1018.26 1018.48 1018.64 1018.74 1018.80 1018.81 1018.77 1018.69 1018.56 1018.38 1018.13 1017.82 1017.44 1017.01 1016.55 1016.07 1015.62 1015.22 1014.90 1014.66 1014.50 1014.41 1014.36 1014.32 1014.24 1014.10 1013.87 1013.55 1013.13 1012.65 1012.12 1011.57 1011.05
1016.34 1016.70 1017.07 1017.44 1017.79 1018.10 1018.35 1018.55 1018.69 1018.77 1018.80 1018.79 1018.74 1018.64 1018.50 1018.30 1018.03 1017.70 1017.32 1016.88 1016.42 1015.96 1015.52 1015.13 1014.80 1014.53 1014.32 1014.15 1013.99 1013.82 1013.62 1013.36 1013.04 1012.66 1012.23 1011.76 1011.29 1010.82
1015.95 1016.35 1016.76 1017.17 1017.56 1017.91 1018.19 1018.41 1018.57 1018.66 1018.71 1018.72 1018.70 1018.63 1018.53 1018.39 1018.19 1017.93 1017.61 1017.23 1016.80 1016.34 1015.88 1015.43 1015.01 1014.62 1014.28 1013.97 1013.68 1013.40 1013.12 1012.82 1012.49 1012.13 1011.75 1011.36 1010.96 1010.57
1015.60 1016.02 1016.47 1016.91 1017.32 1017.69 1017.99 1018.22 1018.38 1018.49 1018.54 1018.56 1018.56 1018.53 1018.47 1018.39 1018.26 1018.08 1017.83 1017.52 1017.15 1016.72 1016.25 1015.76 1015.26 1014.78 1014.31 1013.87 1013.47 1013.08 1012.71 1012.35 1012.00 1011.66 1011.32 1010.99 1010.66 1010.33
1015.29 1015.73 1016.20 1016.65 1017.07 1017.45 1017.75 1017.98 1018.14 1018.24 1018.29 1018.32 1018.33 1018.33 1018.32 1018.29 1018.23 1018.12 1017.96 1017.72 1017.41 1017.02 1016.57 1016.07 1015.53 1014.98 1014.43 1013.90 1013.39 1012.92 1012.47 1012.07 1011.69 1011.35 1011.03 1010.73 1010.45 1010.17
1015.02 1015.47 1015.93 1016.38 1016.80 1017.16 1017.45 1017.67 1017.82 1017.92 1017.97 1018.00 1018.02 1018.05 1018.07 1018.09 1018.09 1018.05 1017.96 1017.80 1017.55 1017.22 1016.81 1016.33 1015.79 1015.22 1014.63 1014.05 1013.48 1012.95 1012.45 1012.01 1011.60 1011.24 1010.92 1010.63 1010.36 1010.11
1014.78 1015.21 1015.65 1016.07 1016.47 1016.81 1017.08 1017.29 1017.44 1017.53 1017.58 1017.62 1017.66 1017.70 1017.75 1017.80 1017.85 1017.87 1017.84 1017.74 1017.56 1017.30 1016.94 1016.51 1016.01 1015.46 1014.88 1014.29 1013.71 1013.16 1012.65 1012.17 1011.74 1011.36 1011.01 1010.70 1010.41 1010.15
1014.54 1014.92 1015.32 1015.71 1016.06 1016.38 1016.64 1016.84 1016.98 1017.08 1017.14 1017.20 1017.25 1017.31 1017.38 1017.46 1017.54 1017.60 1017.61 1017.57 1017.45 1017.25 1016.96 1016.60 1016.16 1015.67 1015.14 1014.59 1014.05 1013.51 1013.00 1012.52 1012.07 1011.65 1011.27 1010.91 1010.58 1010.27
1014.23 1014.56 1014.91 1015.25 1015.57 1015.86 1016.10 1016.30 1016.46 1016.57 1016.67 1016.75 1016.82 1016.91 1017.01 1017.11 1017.21 1017.29 1017.33 1017.33 1017.25 1017.11 1016.89 1016.59 1016.23 1015.82 1015.38 1014.90 1014.42 1013.93 1013.45 1012.97 1012.51 1012.06 1011.62 1011.21 1010.81 1010.44
1013.81 1014.08 1014.37 1014.66 1014.95 1015.22 1015.47 1015.69 1015.87 1016.03 1016.17 1016.29 1016.41 1016.54 1016.66 1016.79 1016.90 1017.00 1017.06 1017.07 1017.02 1016.92 1016.75 1016.52 1016.24 1015.92 1015.56 1015.17 1014.76 1014.34 1013.90 1013.45 1012.98 1012.50 1012.02 1011.54 1011.07 1010.62
1013.22 1013.44 1013.68 1013.94 1014.20 1014.47 1014.74 1014.99 1015.23 1015.45 1015.65 1015.85 1016.03 1016.21 1016.38 1016.53 1016.67 1016.77 1016.83 1016.85 1016.82 1016.74 1016.60 1016.42 1016.20 1015.95 1015.67 1015.37 1015.04 1014.69 1014.30 1013.88 1013.42 1012.93 1012.41 1011.87 1011.34 1010.83
1012.45 1012.62 1012.82 1013.06 1013.32 1013.61 1013.91 1014.22 1014.53 1014.83 1015.13 1015.41 1015.68 1015.93 1016.16 1016.36 1016.52 1016.63 1016.70 1016.72 1016.68 1016.60 1016.48 1016.33 1016.15 1015.95 1015.74 1015.50 1015.24 1014.96 1014.63 1014.25 1013.82 1013.33 1012.79 1012.22 1011.64 1011.08
1011.48 1011.62 1011.80 1012.04 1012.32 1012.64 1012.99 1013.38 1013.77 1014.18 1014.58 1014.97 1015.35 1015.69 1015.99 1016.25 1016.45 1016.59 1016.67 1016.68 1016.64 1016.55 1016.43 1016.28 1016.11 1015.94 1015.77 1015.58 1015.39 1015.16 1014.89 1014.57 1014.18 1013.72 1013.20 1012.62 1012.03 1011.44
1010.35 1010.48 1010.66 1010.91 1011.22 1011.59 1012.01 1012.48 1012.97 1013.49 1014.01 1014.52 1015.01 1015.46 1015.85 1016.18 1016.44 1016.62 1016.71 1016.73 1016.68 1016.58 1016.44 1016.28 1016.12 1015.95 1015.80 1015.66 1015.51 1015.34 1015.14 1014.88 1014.55 1014.15 1013.68 1013.14 1012.56 1011.98
1009.14 1009.27 1009.46 1009.74 1010.08 1010.51 1011.00 1011.55 1012.15 1012.77 1013.41 1014.04 1014.64 1015.21 1015.70 1016.12 1016.45 1016.67 1016.80 1016.84 1016.79 1016.68 1016.52 1016.35 1016.17 1016.01 1015.87 1015.75 1015.64 1015.54 1015.41 1015.23 1015.00 1014.68 1014.29 1013.82 1013.30 1012.76
Thickness
5707 5707 5707 5708 5708 5708 5708 5707 5703 5700 5702 5704 5705 5706 5704 5702 5700 5699 5697 5694 5693 5691 5689 5687 5686 5684 5683 5681 5680 5679 5678 5678 5678 5677 5677 5676 5675 5675
5702 5702 5702 5703 5704 5704 5704 5704 5702 5699 5698 5702 5701 5703 5700 5700 5696 5695 5694 5691 5689 5687 5685 5684 5682 5681 5679 5678 5677 5676 5675 5674 5674 5673 5672 5672 5671 5671
5697 5697 5696 5697 5698 5699 5699 5698 5697 5695 5693 5696 5698 5698 5694 5693 5692 5691 5691 5689 5688 5684 5682 5680 5679 5677 5676 5674 5673 5672 5671 5670 5669 5669 5668 5667 5667 5667
5691 5691 5691 5692 5691 5692 5692 5692 5692 5691 5689 5687 5690 5691 5689 5688 5686 5685 5686 5687 5685 5681 5679 5677 5675 5673 5672 5671 5669 5668 5667 5666 5666 5665 5664 5663 5663 5662
5686 5685 5686 5685 5685 5686 5685 5686 5687 5687 5685 5683 5684 5684 5684 5684 5681 5681 5681 5679 5680 5678 5675 5673 5671 5669 5668 5666 5665 5664 5663 5662 5661 5660 5659 5658 5658 5657
5681 5680 5680 5680 5679 5679 5679 5679 5680 5679 5679 5678 5679 5679 5678 5678 5675 5675 5675 5675 5674 5675 5672 5670 5667 5665 5664 5663 5661 5660 5658 5657 5657 5656 5655 5654 5654 5653
5675 5675 5674 5674 5672 5672 5674 5674 5673 5673 5673 5673 5673 5673 5672 5670 5669 5670 5668 5669 5669 5669 5667 5667 5665 5664 5661 5659 5657 5655 5654 5652 5651 5650 5650 5649 5649 5649
5668 5668 5669 5668 5665 5663 5663 5664 5664 5665 5666 5666 5666 5665 5663 5663 5663 5662 5662 5661 5660 5663 5660 5660 5661 5659 5658 5656 5653 5651 5648 5647 5646 5645 5644 5644 5643 5643
5663 5662 5663 5664 5661 5660 5658 5656 5656 5656 5656 5658 5658 5657 5657 5657 5655 5655 5654 5653 5652 5654 5653 5653 5654 5653 5652 5650 5647 5645 5643 5641 5640 5639 5638 5638 5638 5638
5657 5657 5656 5655 5655 5653 5653 5653 5653 5653 5651 5651 5651 5651 5651 5650 5648 5648 5647 5646 5646 5647 5646 5645 5647 5646 5647 5644 5641 5639 5636 5635 5634 5633 5633 5632 5632 5632
5652 5651 5650 5648 5645 5643 5644 5645 5645 5646 5645 5644 5643 5643 5642 5641 5640 5640 5641 5641 5641 5642 5641 5639 5640 5640 5640 5639 5636 5633 5631 5629 5628 5627 5626 5626 5626 5625
5646 5646 5642 5641 5637 5635 5636 5637 5637 5639 5639 5639 5638 5637 5637 5636 5633 5633 5635 5634 5634 5635 5636 5633 5633 5633 5632 5634 5633 5630 5627 5624 5623 5621 5621 5620 5619 5619
5641 5640 5638 5633 5630 5628 5627 5629 5630 5630 5632 5633 5634 5634 5633 5633 5632 5631 5630 5629 5629 5629 5630 5627 5626 5626 5625 5626 5627 5626 5625 5622 5620 5618 5616 5615 5613 5613
5633 5634 5631 5625 5623 5621 5621 5621 5620 5620 5625 5628 5628 5629 5629 5628 5628 5627 5625 5624 5623 5623 5622 5620 5619 5618 5618 5618 5619 5620 5620 5619 5617 5615 5613 5610 5608 5607
5627 5623 5620 5618 5616 5617 5616 5614 5613 5617 5620 5621 5622 5623 5624 5623 5622 5620 5619 5618 5616 5617 5616 5614 5613 5612 5612 5612 5613 5613 5612 5612 5612 5610 5608 5606 5605 5603
5619 5616 5613 5612 5612 5612 5611 5611 5612 5614 5615 5616 5618 5618 5618 5616 5615 5615 5614 5613 5613 5613 5612 5610 5607 5606 5606 5607 5607 5607 5606 5605 5605 5604 5603 5601 5600 5599
5610 5611 5612 5612 5611 5611 5611 5611 5610 5610 5609 5610 5611 5611 5610 5610 5609 5609 5607 5607 5607 5607 5606 5604 5603 5602 5601 5600 5600 5601 5600 5599 5598 5597 5594 5594 5594 5594
5602 5607 5608 5608 5608 5608 5607 5606 5606 5606 5605 5605 5605 5605 5604 5604 5603 5603 5602 5601 5600 5601 5600 5599 5597 5596 5595 5596 5593 5594 5593 5592 5591 5590 5588 5588 5588 5589
5598 5602 5603 5603 5604 5604 5603 5602 5602 5602 5600 5599 5599 5599 5598 5597 5597 5596 5595 5594 5593 5593 5593 5592 5590 5588 5587 5588 5590 5585 5584 5584 5583 5582 5583 5583 5583 5583
5596 5598 5598 5598 5598 5598 5598 5597 5597 5596 5595 5594 5593 5593 5591 5590 5590 5589 5589 5587 5586 5586 5585 5584 5583 5582 5580 5580 5581 5580 5576 5576 5576 5575 5576 5576 5576 5575
5592 5592 5592 5592 5592 5592 5591 5591 5591 5590 5589 5588 5587 5586 5586 5585 5584 5584 5583 5579 5577 5579 5578 5577 5576 5572 5572 5573 5573 5574 5573 5569 5568 5567 5568 5568 5570 5571
5586 5586 5586 5585 5585 5585 5584 5585 5585 5584 5583 5582 5581 5580 5580 5579 5578 5577 5576 5575 5573 5572 5571 5571 5568 5567 5566 5566 5566 5567 5566 5564 5562 5560 5559 5559 5562 5564
5579 5579 5579 5579 5578 5578 5578 5579 5578 5578 5577 5576 5575 5573 5572 5572 5571 5571 5569 5568 5567 5565 5564 5563 5562 5561 5560 5560 5559 5559 5558 5558 5558 5558 5558 5555 5553 5552